Regional Weather Roundup
Issued by NWS

Home | Current Version | Previous Version | Text Only | Print | Product List | Glossary Off
Versions: 1 2 3 4 5 6 7 8 9 10 11 12 13 14 15 16 17 18 19 20 21 22 23 24 25 26 27 28

000
ASUS45 KSLC 191510
RWRUT

UTAH REGIONAL WEATHER ROUNDUP
NATIONAL WEATHER SERVICE SALT LAKE CITY UT
900 AM MDT TUE SEP 19 2017

UTZ001>011-023>025-191600-

NORTHERN UTAH

CITY           SKY/WX    TMP DP  RH WIND       PRES   REMARKS
BRIGHAM CITY   CLOUDY    48  37  65 E5        29.90F
DUGWAY         PTSUNNY   52  38  58 NE20G28   29.86R
HILL AFB       CLOUDY    45  39  78 N8        29.89S
LOGAN          CLOUDY    45  39  79 S3        29.91F
OGDEN          LGT RAIN  47  39  74 N7G17     29.90R
SALT LAKE CITY LGT RAIN  50  44  80 NW13      29.91R
TOOELE VALLEY  LGT RAIN  46  45  93 NE9       29.93R
WENDOVER       PTSUNNY   55  36  48 S8        29.88R
HEBER CITY     CLOUDY    57  39  51 SW15G21   29.80R
WEST JORDAN    CLOUDY    45  45 100 NW12G18   29.93R

$$

UTZ011>015-024>027-191600-

CENTRAL/NORTHEAST UTAH

CITY           SKY/WX    TMP DP  RH WIND       PRES   REMARKS
PROVO AIRPORT  PTSUNNY   51  43  74 NW26G36   29.87R
MOAB/CANYONLAN SUNNY     72  27  18 SW18G25   29.81S
DELTA          MOSUNNY   64  36  34 W16G28    29.83R
PRICE          MOSUNNY   61  34  36 E5        29.83F
ROOSEVELT      SUNNY     64  34  32 SW9       29.78S
VERNAL         SUNNY     66  35  31 SW13      29.75S

$$

UTZ013>016-019>022-027-191600-

SOUTHERN UTAH

CITY           SKY/WX    TMP DP  RH WIND       PRES   REMARKS
BRYCE CANYON   MOSUNNY   56  34  43 S14       30.05F
CEDAR CITY     PTSUNNY   64  36  35 SW17G28   29.92R
MILFORD        PTSUNNY   62  39  42 S17       29.88R
ST GEORGE      CLOUDY    72  41  32 SE6       29.84R
HANKSVILLE     MOSUNNY   72  32  23 SW17G32   29.85S
BLANDING         N/A     58  23  26 S3        30.10R

$$

REGIONAL REPORTS     COLORADO/ARIZONA

CITY           SKY/WX    TMP DP  RH WIND       PRES   REMARKS
CRAIG, CO      SUNNY     65  18  16 SW28G41   29.81F
GRAND JUNCTION SUNNY     68  25  19 S14       29.85S
RIFLE, CO      CLOUDY    67  26  21 NW6       29.87F
MONTROSE, CO   CLOUDY    64  22  20 VRB3      29.98R
CORTEZ, CO     CLOUDY    55  33  43 CALM      30.05R
PAGE, AZ       CLOUDY    68  33  27 SW3       29.92R
GRAND CANYON   MOSUNNY   55  26  32 SW10      30.10R
KINGMAN, AZ    MOSUNNY   74  43  32 S18       29.93R
FLAGSTAFF, AZ  MOSUNNY   55  26  32 SW16      30.13R

$$

REGIONAL REPORTS    NEVADA/IDAHO/WYOMING

CITY           SKY/WX    TMP DP  RH WIND       PRES   REMARKS
LAS VEGAS, NV  PTSUNNY   75  40  28 S14G25    29.77R
ELY, NY        MOSUNNY   53  35  50 CALM      29.94R
ELKO, NV       CLOUDY    51  32  48 W15       29.93R
POCATELLO, ID  MOSUNNY   45  39  79 SW14      29.87R
BURLEY, ID     MOSUNNY   47  38  71 SW9       29.87R
FORT BRIDGER,  LGT SNOW  35  35 100 NW10      29.91R WCI  27
EVANSTON, WY   CLOUDY    37  36  96 NW14      29.89R WCI  28
ROCK SPRINGS,  LGT RAIN  47  39  74 W20G29    29.81R
KEMMERER, WY   LGT SNOW  34  32  93 W24G33    29.88R WCI  21

$$




USA.gov is the U.S. government's official web portal to all federal, state and local government web resources and services.